Regional Weather Roundup
Issued by NWS

Home | Current Version | Previous Version | Graphics & Text | Print | Product List | Glossary On
Versions: 1 2 3 4 5 6 7 8 9 10 11 12 13 14 15 16 17 18 19 20 21 22 23 24 25 26 27 28 29 30 31 32 33 34 35 36 37 38 39 40 41 42 43 44 45 46 47 48 49 50
000
ASUS45 KBOU 021310
RWRCO

WEATHER ROUNDUP FOR COLORADO
NATIONAL WEATHER SERVICE DENVER/BOULDER CO
700 AM MDT THU JUL 02 2015

NOTE: "FAIR" INDICATES FEW OR NO CLOUDS BELOW 12000 FEET WITH NO
SIGNIFICANT WEATHER AND/OR OBSTRUCTIONS TO VISIBILITY.

COZ001>005-013-030-031-021400-
...NORTHWEST COLORADO...

CITY           SKY/WX    TMP DP  RH WIND       PRES   REMARKS
CRAIG          PTSUNNY   56  50  80 CALM      30.22R
HAYDEN         PTSUNNY   57  46  67 E8        30.24R
MEEKER         PTSUNNY   57  49  74 E7        30.22R
MOUNT WERNER   NOT AVBL
STEAMBOAT SPGS MOSUNNY   54  47  78 CALM      30.26S
WALDEN         MOSUNNY   52  48  87 NW5       30.37S
$$

COZ006>008-011-021400-
...WEST CENTRAL VALLEYS...

CITY           SKY/WX    TMP DP  RH WIND       PRES   REMARKS
GRAND JUNCTION PTSUNNY   76  51  41 SE7       30.07R
MONTROSE       CLOUDY    73  51  46 SE10      30.19R
EAGLE          MOSUNNY   55  48  76 CALM      30.28R
RIFLE          PTSUNNY   64  50  60 CALM      30.15R
DELTA          CLOUDY    73  52  48 N7        30.15R
NUCLA          CLOUDY    68  54  60 E7        30.26R
$$

COZ017>023-064>068-021400-
...SOUTHWEST COLORADO...

CITY           SKY/WX    TMP DP  RH WIND       PRES   REMARKS
DURANGO        CLOUDY    62  55  77 CALM      30.26F
CORTEZ         SUNNY     68  54  60 E9        30.22S
PAGOSA SPRINGS CLOUDY    58  52  80 NW3       30.36R
TELLURIDE      CLOUDY    56  52  84 CALM      30.48R
WOLF CREEK PAS NOT AVBL
$$

COZ009-010-012-014-032>034-037-058>063-021400-
...CENTRAL COLORADO...

CITY           SKY/WX    TMP DP  RH WIND       PRES   REMARKS
ASPEN          CLOUDY    58  48  69 CALM      30.31R
BUENA VISTA    PTSUNNY   55  50  83 N3        30.36R
COPPER MTN     NOT AVBL
BERTHOUD PASS  FAIR      41  32  70 SE9       30.68S
COTTONWOOD PAS NOT AVBL
GUNNISON       PTSUNNY   55  45  67 CALM      30.39R
KREMMLING      MOSUNNY   54  45  71 N3        30.35R
LEADVILLE      CLOUDY    50  48  93 CALM      30.47R
MONARCH PASS   CLOUDY    52  41  66 W3        30.74S
SALIDA         PTSUNNY   58  51  77 NW6       30.40R
SUNLIGHT       CLOUDY    59  41  51 CALM      30.56S
WILKERSON PASS PTSUNNY   46  43  87 NE16      30.60R
$$

COZ069>075-021400-
...SAN LUIS VALLEY/SANGRE DE CRISTO MOUNTAINS...

CITY           SKY/WX    TMP DP  RH WIND       PRES   REMARKS
ALAMOSA        CLOUDY    57  55  93 S3        30.34R
LA VETA PASS   CLOUDY    46  43  87 MISG      30.48R
SAGUACHE       PTSUNNY   54  52  94 N8        30.37R
$$

COZ035-036-038>040-021400-
...NORTHERN COLORADO FRONT RANGE...

CITY           SKY/WX    TMP DP  RH WIND       PRES   REMARKS
DENVER INTL AP LGT RAIN  56  53  90 N14       30.29R
DMNS CITY PARK   N/A     57  53  86 NE7G15    30.30R
AURORA         PTSUNNY   56  53  90 E14       30.29R
FRONT RANGE AP LGT RAIN  57  54  88 NE9       30.29R
ERIE MUNI ARPT CLOUDY    59  55  88 NE8       30.29R
BOULDER MUN AP CLOUDY    59  55  88 N6        30.30R
CENTENNIAL     PTSUNNY   56  53  90 NE12G18   30.30R
BROOMFIELD     CLOUDY    57  55  94 MISG      30.32R
FORT COLLINS   CLOUDY    61  54  77 CALM      30.27F
LONGMONT       CLOUDY    62  56  82 N7        30.30F
$$

COZ041-046-047-076>085-087-088-021400-
...PIKES PEAK/PALMER DIVIDE AND SOUTHERN FOOTHILLS...

CITY           SKY/WX    TMP DP  RH WIND       PRES   REMARKS
COLO. SPRINGS  PTSUNNY   63  57  81 N21G29    30.24R
A. F. ACADEMY  CLOUDY    59  57  94 N16G25    30.27R
ELLICOTT       PTSUNNY  N/A N/A N/A N12       30.22R
FALCON         PTSUNNY   59  56  91 N28G44    30.26F
FORT CARSON    PTSUNNY   62  58  86 N31G44    30.18R
LIMON          PTSUNNY   57  52  83 NE20G33   30.20S
MONUMENT HILL  CLOUDY    54  54 100 MISG      30.33R
TRINIDAD       CLOUDY    63  56  78 SW10      30.15S
$$

COZ042>045-048>051-090-091-021400-
...NORTHEAST COLORADO...

CITY           SKY/WX    TMP DP  RH WIND       PRES   REMARKS
GREELEY ARPT   CLOUDY    61  55  82 W8        30.26S
AKRON          PTSUNNY   60  53  77 NE16      30.18S
BURLINGTON     PTSUNNY   61  56  83 NE16      30.14S
WRAY           CLOUDY    64  56  75 N5        30.13S
STERLING       PTSUNNY   59  55  88 SE3         N/A
HOLYOKE        DRIZZLE   63  57  82 W3        30.11F
FORT MORGAN    NOT AVBL
$$

COZ086-089-092>099-021400-
...SOUTHEAST COLORADO...

CITY           SKY/WX    TMP DP  RH WIND       PRES   REMARKS
PUEBLO         PTSUNNY   66  62  87 W3        30.09R
LA JUNTA       PTSUNNY   65  63  93 CALM      30.05S
LAMAR          MOSUNNY   68  64  87 NE5       30.03R
SPRINGFIELD      N/A     69  63  81 N6        30.05R
$$


USA.gov is the U.S. government's official web portal to all federal, state and local government web resources and services.